Location: *
(46.4833°N, 7.6667°E)
Time: 06:26:08
(UTC+00:00)

Cosmos 1464 Rocket - Pass Details

Date: 27 February 2020
Orbit: 951 x 1002 km, 82.9° (Epoch: 09 April)

Event Time Altitude Azimuth Distance (km) Brightness Sun altitude
Rises 18:03:07 0° 171° (S) 3,706 7.0 -9.6°
Reaches altitude 10° 18:05:41 10° 167° (SSE) 2,764 6.3 -10.1°
Maximum altitude 18:11:50 54° 91° (E) 1,203 4.1 -11.1°
Drops below altitude 10° 18:18:02 10° 17° (NNE) 2,783 6.2 -12.2°
Sets 18:20:37 0° 13° (NNE) 3,734 6.9 -12.7°
